When you browse on this site, cookies collect data to enhance your experience and personalize the content and advertising you see.
Visit our Privacy Policy to learn more. By continuing to use the site, you agree to this use of cookies and data.
  • In Hungary
  • List of Countries
  • For 7 days
  • Water Temperature
  • Satellite Maps
  • Weather Map
  • News
  • Weather Widgets
  • user-avatar
    Login

    Hourly Weather San José de Bocay

    Today, 12 December, Wednesday

    Time Temperature Precipitation Wind Pressure Humidity
    00:00 +21°C° 0 mm 1 mps 719 mmHg 98%
    01:00 +21°C° 0 mm 1 mps 718 mmHg 98%
    02:00 +21°C° 0 mm 1 mps 718 mmHg 98%
    03:00 +21°C° 0 mm 1 mps 718 mmHg 98%
    04:00 +21°C° 0 mm 1 mps 718 mmHg 98%
    05:00 +21°C° 0 mm 1 mps 718 mmHg 98%
    06:00 +21°C° 0 mm 1 mps 719 mmHg 98%
    07:00 +22°C° 0 mm 1 mps 719 mmHg 93%
    08:00 +23°C° 0 mm 1 mps 720 mmHg 88%
    09:00 +24°C° 0 mm 2 mps 720 mmHg 83%
    10:00 +26°C° 0 mm 2 mps 720 mmHg 74%
    11:00 +27°C° 0 mm 2 mps 719 mmHg 66%
    12:00 +29°C° 0 mm 2 mps 719 mmHg 57%
    13:00 +29°C° 0.1 mm 2 mps 719 mmHg 58%
    14:00 +29°C° 0.1 mm 2 mps 718 mmHg 59%
    15:00 +29°C° 0.1 mm 2 mps 717 mmHg 59%
    16:00 +27°C° 0.1 mm 2 mps 717 mmHg 70%
    17:00 +25°C° 0.1 mm 1 mps 717 mmHg 80%
    18:00 +23°C° 0.1 mm 1 mps 717 mmHg 91%
    19:00 +22°C° 0.1 mm 1 mps 718 mmHg 93%
    20:00 +22°C° 0.1 mm 1 mps 718 mmHg 95%
    21:00 +21°C° 0.1 mm 1 mps 718 mmHg 97%
    22:00 +21°C° 0 mm 1 mps 718 mmHg 98%
    23:00 +21°C° 0 mm 1 mps 718 mmHg 98%

    Tomorrow, 13 December, Thursday

    Time Temperature Precipitation Wind Pressure Humidity
    00:00 +20°C° 0 mm 1 mps 718 mmHg 98%
    01:00 +20°C° 0 mm 1 mps 718 mmHg 98%
    02:00 +20°C° 0 mm 1 mps 718 mmHg 98%
    03:00 +20°C° 0 mm 1 mps 717 mmHg 98%
    04:00 +20°C° 0 mm 1 mps 717 mmHg 98%
    05:00 +20°C° 0 mm 1 mps 717 mmHg 98%
    06:00 +20°C° 0 mm 1 mps 717 mmHg 98%
    07:00 +22°C° 0 mm 1 mps 718 mmHg 92%
    08:00 +23°C° 0 mm 1 mps 719 mmHg 86%
    09:00 +25°C° 0 mm 1 mps 719 mmHg 80%
    10:00 +26°C° 0.1 mm 1 mps 719 mmHg 74%
    11:00 +27°C° 0.1 mm 1 mps 718 mmHg 68%
    12:00 +28°C° 0.1 mm 2 mps 718 mmHg 61%
    13:00 +28°C° 0 mm 1 mps 717 mmHg 61%
    14:00 +29°C° 0 mm 1 mps 717 mmHg 60%
    15:00 +29°C° 0 mm 1 mps 716 mmHg 60%
    16:00 +27°C° 0 mm 1 mps 716 mmHg 69%
    17:00 +25°C° 0 mm 1 mps 717 mmHg 78%
    18:00 +21°C° 0 mm 0 mps 717 mmHg 86%
    19:00 +20°C° 0 mm 0 mps 717 mmHg 89%
    20:00 +20°C° 0 mm 0 mps 718 mmHg 91%
    21:00 +19°C° 0 mm 0 mps 718 mmHg 93%
    22:00 +19°C° 0 mm 0 mps 718 mmHg 94%
    23:00 +18°C° 0 mm 0 mps 718 mmHg 95%

    Day after tomorrow, 14 December, Friday

    Time Temperature Precipitation Wind Pressure Humidity
    00:00 +18°C° 0 mm 0 mps 718 mmHg 96%
    01:00 +18°C° 0 mm 0 mps 717 mmHg 96%
    02:00 +18°C° 0 mm 0 mps 717 mmHg 96%
    03:00 +17°C° 0 mm 0 mps 717 mmHg 97%
    04:00 +17°C° 0 mm 0 mps 717 mmHg 97%
    05:00 +17°C° 0 mm 0 mps 717 mmHg 97%
    06:00 +17°C° 0 mm 0 mps 717 mmHg 97%
    07:00 +21°C° 0 mm 1 mps 718 mmHg 87%
    08:00 +24°C° 0 mm 1 mps 719 mmHg 77%
    09:00 +27°C° 0 mm 1 mps 719 mmHg 68%
    10:00 +28°C° 0 mm 1 mps 719 mmHg 62%
    11:00 +29°C° 0 mm 1 mps 718 mmHg 57%
    12:00 +31°C° 0 mm 1 mps 718 mmHg 52%
    13:00 +30°C° 0 mm 1 mps 717 mmHg 53%
    14:00 +30°C° 0 mm 1 mps 716 mmHg 55%
    15:00 +30°C° 0 mm 1 mps 716 mmHg 57%
    16:00 +28°C° 0.1 mm 1 mps 716 mmHg 67%
    17:00 +26°C° 0.1 mm 1 mps 716 mmHg 77%
    18:00 +24°C° 0.1 mm 1 mps 716 mmHg 87%
    19:00 +23°C° 0.1 mm 1 mps 717 mmHg 90%
    20:00 +22°C° 0.1 mm 1 mps 718 mmHg 93%
    21:00 +22°C° 0.1 mm 1 mps 719 mmHg 96%
    22:00 +22°C° 0 mm 1 mps 718 mmHg 96%
    23:00 +21°C° 0 mm 1 mps 718 mmHg 97%

    15 December, Saturday

    Time Temperature Precipitation Wind Pressure Humidity
    00:00 +21°C° 0 mm 1 mps 718 mmHg 97%
    01:00 +21°C° 0 mm 1 mps 718 mmHg 97%
    02:00 +21°C° 0 mm 1 mps 718 mmHg 97%
    03:00 +21°C° 0 mm 1 mps 717 mmHg 97%
    04:00 +20°C° 0 mm 1 mps 718 mmHg 97%
    05:00 +20°C° 0 mm 1 mps 718 mmHg 98%
    06:00 +20°C° 0 mm 1 mps 718 mmHg 98%
    07:00 +22°C° 0 mm 1 mps 719 mmHg 88%
    08:00 +24°C° 0 mm 2 mps 720 mmHg 78%
    09:00 +26°C° 0 mm 2 mps 721 mmHg 68%
    10:00 +27°C° 0 mm 3 mps 720 mmHg 63%
    11:00 +29°C° 0 mm 3 mps 720 mmHg 59%
    12:00 +30°C° 0 mm 4 mps 719 mmHg 54%
    13:00 +28°C° 0.5 mm 3 mps 718 mmHg 63%
    14:00 +27°C° 0.5 mm 3 mps 718 mmHg 73%
    15:00 +25°C° 0.5 mm 3 mps 717 mmHg 82%
    16:00 +24°C° 0.1 mm 3 mps 718 mmHg 85%
    17:00 +21°C° 0.1 mm 2 mps 718 mmHg 88%
    18:00 +20°C° 0.1 mm 2 mps 719 mmHg 91%
    19:00 +20°C° 0 mm 1 mps 719 mmHg 92%
    20:00 +20°C° 0 mm 1 mps 720 mmHg 93%
    21:00 +19°C° 0 mm 1 mps 720 mmHg 95%
    22:00 +19°C° 0 mm 1 mps 720 mmHg 95%
    23:00 +19°C° 0 mm 1 mps 720 mmHg 95%

    16 December, Sunday

    Time Temperature Precipitation Wind Pressure Humidity
    00:00 +18°C° 0 mm 1 mps 719 mmHg 96%
    01:00 +18°C° 0 mm 1 mps 719 mmHg 96%
    02:00 +18°C° 0 mm 1 mps 719 mmHg 95%
    03:00 +18°C° 0 mm 1 mps 718 mmHg 95%
    04:00 +18°C° 0 mm 1 mps 718 mmHg 95%
    05:00 +18°C° 0 mm 1 mps 719 mmHg 95%
    06:00 +18°C° 0 mm 1 mps 719 mmHg 94%
    07:00 +19°C° 0 mm 2 mps 720 mmHg 85%
    08:00 +21°C° 0 mm 2 mps 720 mmHg 76%
    09:00 +24°C° 0 mm 3 mps 721 mmHg 67%
    10:00 +26°C° 0 mm 3 mps 720 mmHg 62%
    11:00 +28°C° 0 mm 4 mps 720 mmHg 57%
    12:00 +29°C° 0 mm 4 mps 719 mmHg 53%
    13:00 +29°C° 0 mm 4 mps 719 mmHg 54%
    14:00 +29°C° 0 mm 4 mps 718 mmHg 56%
    15:00 +29°C° 0 mm 4 mps 717 mmHg 58%
    16:00 +27°C° 0.1 mm 3 mps 718 mmHg 66%
    17:00 +25°C° 0.1 mm 2 mps 718 mmHg 74%
    18:00 +23°C° 0.1 mm 2 mps 718 mmHg 82%
    19:00 +21°C° 0 mm 2 mps 719 mmHg 85%
    20:00 +22°C° 0 mm 1 mps 719 mmHg 89%
    21:00 +21°C° 0 mm 1 mps 720 mmHg 92%
    22:00 +21°C° 0 mm 1 mps 719 mmHg 93%
    23:00 +20°C° 0 mm 1 mps 719 mmHg 94%

    17 December, Monday

    Time Temperature Precipitation Wind Pressure Humidity
    00:00 +20°C° 0 mm 1 mps 719 mmHg 96%
    01:00 +20°C° 0 mm 1 mps 718 mmHg 96%
    02:00 +19°C° 0 mm 1 mps 718 mmHg 96%
    03:00 +19°C° 0 mm 1 mps 718 mmHg 96%
    04:00 +19°C° 0 mm 1 mps 718 mmHg 96%
    05:00 +19°C° 0 mm 1 mps 718 mmHg 95%
    06:00 +19°C° 0 mm 1 mps 719 mmHg 95%
    07:00 +20°C° 0 mm 2 mps 719 mmHg 86%
    08:00 +23°C° 0 mm 2 mps 720 mmHg 77%
    09:00 +26°C° 0 mm 3 mps 721 mmHg 68%
    10:00 +26°C° 0 mm 3 mps 720 mmHg 64%
    11:00 +27°C° 0 mm 3 mps 719 mmHg 61%
    12:00 +28°C° 0 mm 3 mps 719 mmHg 57%
    13:00 +28°C° 0.1 mm 3 mps 718 mmHg 59%
    14:00 +28°C° 0.1 mm 3 mps 718 mmHg 62%
    15:00 +28°C° 0.1 mm 3 mps 717 mmHg 64%
    16:00 +26°C° 0.1 mm 3 mps 718 mmHg 72%
    17:00 +24°C° 0.1 mm 2 mps 718 mmHg 79%
    18:00 +22°C° 0.1 mm 1 mps 718 mmHg 87%
    19:00 +21°C° 0 mm 1 mps 719 mmHg 90%
    20:00 +21°C° 0 mm 1 mps 719 mmHg 92%
    21:00 +20°C° 0 mm 1 mps 719 mmHg 95%
    22:00 +20°C° 0 mm 1 mps 719 mmHg 95%
    23:00 +19°C° 0 mm 1 mps 719 mmHg 95%
    Show more